Time,TemperatureF,DewpointF,PressureIn,WindDirection,WindDirectionDegrees,WindSpeedMPH,WindSpeedGustMPH,Humidity,HourlyPrecipIn,Conditions,Clouds,dailyrainin,SoftwareType,DateUTC
2013-09-22 00:13:00,58.6,51.0,29.89,NNW,329,0.0,3.0,76,0.00,,,0.00,weatherlink.com 1.10,2013-09-22 04:13:00,
2013-09-22 00:28:00,57.9,51.0,29.89,North,357,1.0,3.0,77,0.00,,,0.00,weatherlink.com 1.10,2013-09-22 04:28:00,
2013-09-22 00:43:00,57.5,51.0,29.90,NW,322,0.0,3.0,78,0.00,,,0.00,weatherlink.com 1.10,2013-09-22 04:43:00,
2013-09-22 00:58:00,57.0,51.0,29.90,NW,325,0.0,0.0,79,0.00,,,0.00,weatherlink.com 1.10,2013-09-22 04:58:00,
2013-09-22 01:13:00,56.4,50.0,29.90,ENE,71,0.0,3.0,80,0.00,,,0.00,weatherlink.com 1.10,2013-09-22 05:13:00,
2013-09-22 01:28:00,56.1,50.0,29.90,NNW,337,0.0,2.0,80,0.00,,,0.00,weatherlink.com 1.10,2013-09-22 05:28:00,
2013-09-22 01:43:00,55.8,50.0,29.90,North,356,0.0,1.0,80,0.00,,,0.00,weatherlink.com 1.10,2013-09-22 05:43:00,
2013-09-22 01:58:00,55.5,50.0,29.91,West,281,0.0,1.0,81,0.00,,,0.00,weatherlink.com 1.10,2013-09-22 05:58:00,
2013-09-22 02:14:00,54.3,50.0,29.91,West,264,0.0,1.0,84,0.00,,,0.00,weatherlink.com 1.10,2013-09-22 06:14:00,
2013-09-22 02:29:00,53.2,49.0,29.91,West,266,0.0,1.0,86,0.00,,,0.00,weatherlink.com 1.10,2013-09-22 06:29:00,
2013-09-22 02:44:00,52.4,49.0,29.91,West,266,0.0,0.0,89,0.00,,,0.00,weatherlink.com 1.10,2013-09-22 06:44:00,
2013-09-22 02:59:00,51.7,49.0,29.91,West,266,0.0,0.0,91,0.00,,,0.00,weatherlink.com 1.10,2013-09-22 06:59:00,
2013-09-22 03:14:00,51.5,49.0,29.91,West,266,0.0,0.0,92,0.00,,,0.00,weatherlink.com 1.10,2013-09-22 07:14:00,
2013-09-22 03:29:00,52.1,49.0,29.91,NW,318,0.0,4.0,90,0.00,,,0.00,weatherlink.com 1.10,2013-09-22 07:29:00,
2013-09-22 03:44:00,52.6,49.0,29.91,NW,318,0.0,2.0,88,0.00,,,0.00,weatherlink.com 1.10,2013-09-22 07:44:00,
2013-09-22 03:59:00,52.8,49.0,29.91,WNW,283,0.0,3.0,87,0.00,,,0.00,weatherlink.com 1.10,2013-09-22 07:59:00,
2013-09-22 04:14:00,52.4,49.0,29.92,WNW,293,0.0,2.0,88,0.00,,,0.00,weatherlink.com 1.10,2013-09-22 08:14:00,
2013-09-22 04:29:00,52.2,49.0,29.92,NNW,329,2.0,2.0,88,0.00,,,0.00,weatherlink.com 1.10,2013-09-22 08:29:00,
2013-09-22 04:44:00,52.0,49.0,29.92,WNW,290,0.0,2.0,88,0.00,,,0.00,weatherlink.com 1.10,2013-09-22 08:44:00,
2013-09-22 04:59:00,51.9,49.0,29.92,NNE,12,0.0,3.0,88,0.00,,,0.00,weatherlink.com 1.10,2013-09-22 08:59:00,
2013-09-22 05:14:00,51.9,49.0,29.93,WNW,287,0.0,4.0,88,0.00,,,0.00,weatherlink.com 1.10,2013-09-22 09:14:00,
2013-09-22 05:29:00,51.8,49.0,29.93,North,6,1.0,4.0,89,0.00,,,0.00,weatherlink.com 1.10,2013-09-22 09:29:00,
2013-09-22 05:44:00,51.7,49.0,29.94,NW,314,1.0,4.0,89,0.00,,,0.00,weatherlink.com 1.10,2013-09-22 09:44:00,
2013-09-22 05:59:00,51.6,49.0,29.94,NW,318,2.0,4.0,89,0.00,,,0.00,weatherlink.com 1.10,2013-09-22 09:59:00,
2013-09-22 06:14:00,51.6,49.0,29.95,NNW,335,2.0,5.0,89,0.00,,,0.00,weatherlink.com 1.10,2013-09-22 10:14:00,
2013-09-22 06:29:00,51.4,48.0,29.95,NNW,329,3.0,4.0,89,0.00,,,0.00,weatherlink.com 1.10,2013-09-22 10:29:00,
2013-09-22 06:44:00,51.3,48.0,29.95,NNW,340,4.0,6.0,89,0.00,,,0.00,weatherlink.com 1.10,2013-09-22 10:44:00,
2013-09-22 06:59:00,51.1,48.0,29.95,NNE,18,3.0,6.0,90,0.00,,,0.00,weatherlink.com 1.10,2013-09-22 10:59:00,
2013-09-22 07:14:00,50.9,48.0,29.95,NNE,22,5.0,5.0,90,0.00,,,0.00,weatherlink.com 1.10,2013-09-22 11:14:00,
2013-09-22 07:29:00,50.7,48.0,29.96,NW,322,2.0,5.0,91,0.00,,,0.00,weatherlink.com 1.10,2013-09-22 11:29:00,
2013-09-22 07:44:00,50.6,48.0,29.97,NNE,29,1.0,6.0,91,0.00,,,0.00,weatherlink.com 1.10,2013-09-22 11:44:00,
2013-09-22 07:59:00,50.7,48.0,29.97,NNW,332,2.0,4.0,91,0.00,,,0.00,weatherlink.com 1.10,2013-09-22 11:59:00,
2013-09-22 08:14:00,51.2,49.0,29.97,WNW,285,1.0,4.0,91,0.00,,,0.00,weatherlink.com 1.10,2013-09-22 12:14:00,
2013-09-22 08:29:00,52.4,49.0,29.97,NW,316,1.0,5.0,89,0.00,,,0.00,weatherlink.com 1.10,2013-09-22 12:29:00,
2013-09-22 08:44:00,54.2,51.0,29.98,WNW,295,0.0,4.0,87,0.00,,,0.00,weatherlink.com 1.10,2013-09-22 12:44:00,
2013-09-22 08:59:00,55.8,51.0,29.98,WNW,285,0.0,4.0,83,0.00,,,0.00,weatherlink.com 1.10,2013-09-22 12:59:00,
2013-09-22 09:14:00,56.8,50.0,29.99,NNW,329,4.0,6.0,79,0.00,,,0.00,weatherlink.com 1.10,2013-09-22 13:14:00,
2013-09-22 09:30:00,58.2,51.0,30.00,NNW,347,3.0,5.0,77,0.00,,,0.00,weatherlink.com 1.10,2013-09-22 13:30:00,
2013-09-22 09:45:00,59.1,51.0,30.00,South,186,0.0,5.0,74,0.00,,,0.00,weatherlink.com 1.10,2013-09-22 13:45:00,
2013-09-22 10:00:00,59.0,50.0,30.00,NW,320,2.0,10.0,73,0.00,,,0.00,weatherlink.com 1.10,2013-09-22 14:00:00,
2013-09-22 10:16:00,59.8,50.0,30.00,NW,317,4.0,7.0,71,0.00,,,0.00,weatherlink.com 1.10,2013-09-22 14:16:00,
2013-09-22 10:30:00,61.7,50.0,30.00,ESE,109,4.0,6.0,66,0.00,,,0.00,weatherlink.com 1.10,2013-09-22 14:30:00,
2013-09-22 10:45:00,62.7,51.0,30.01,East,101,1.0,4.0,65,0.00,,,0.00,weatherlink.com 1.10,2013-09-22 14:45:00,
2013-09-22 11:00:00,62.9,50.0,30.01,WNW,294,4.0,5.0,62,0.00,,,0.00,weatherlink.com 1.10,2013-09-22 15:00:00,
2013-09-22 11:15:00,62.0,49.0,30.01,NW,321,3.0,9.0,62,0.00,,,0.00,weatherlink.com 1.10,2013-09-22 15:15:00,
2013-09-22 11:30:00,62.7,48.0,30.01,North,349,6.0,10.0,60,0.00,,,0.00,weatherlink.com 1.10,2013-09-22 15:30:00,
2013-09-22 11:45:00,62.6,48.0,30.01,NNW,329,5.0,8.0,60,0.00,,,0.00,weatherlink.com 1.10,2013-09-22 15:45:00,
2013-09-22 12:00:00,62.6,48.0,30.01,ESE,110,2.0,11.0,60,0.00,,,0.00,weatherlink.com 1.10,2013-09-22 16:00:00,
2013-09-22 12:30:00,63.5,49.0,30.01,NE,47,2.0,8.0,60,0.00,,,0.00,weatherlink.com 1.10,2013-09-22 16:30:00,
2013-09-22 12:45:00,65.0,50.0,30.02,NW,320,1.0,7.0,59,0.00,,,0.00,weatherlink.com 1.10,2013-09-22 16:45:00,
2013-09-22 13:00:00,65.0,50.0,30.01,WSW,255,0.0,9.0,58,0.00,,,0.00,weatherlink.com 1.10,2013-09-22 17:00:00,
2013-09-22 13:15:00,65.0,49.0,30.01,NNW,331,4.0,6.0,57,0.00,,,0.00,weatherlink.com 1.10,2013-09-22 17:15:00,
2013-09-22 13:30:00,64.3,49.0,30.01,ENE,71,0.0,7.0,58,0.00,,,0.00,weatherlink.com 1.10,2013-09-22 17:30:00,
2013-09-22 13:45:00,64.7,50.0,30.01,NNE,29,9.0,9.0,59,0.00,,,0.00,weatherlink.com 1.10,2013-09-22 17:45:00,
2013-09-22 14:00:00,65.0,49.0,30.00,WNW,284,3.0,8.0,57,0.00,,,0.00,weatherlink.com 1.10,2013-09-22 18:00:00,
2013-09-22 14:45:00,66.7,49.0,29.99,NW,307,0.0,8.0,53,0.00,,,0.00,weatherlink.com 1.10,2013-09-22 18:45:00,
2013-09-22 15:00:00,66.4,49.0,29.98,NNW,333,4.0,7.0,53,0.00,,,0.00,weatherlink.com 1.10,2013-09-22 19:00:00,
2013-09-22 15:15:00,67.1,49.0,29.98,NE,43,5.0,7.0,52,0.00,,,0.00,weatherlink.com 1.10,2013-09-22 19:15:00,
2013-09-22 15:30:00,67.3,49.0,29.98,East,101,2.0,5.0,53,0.00,,,0.00,weatherlink.com 1.10,2013-09-22 19:30:00,
2013-09-22 15:45:00,67.6,48.0,29.97,WNW,297,5.0,10.0,50,0.00,,,0.00,weatherlink.com 1.10,2013-09-22 19:45:00,
2013-09-22 16:00:00,67.7,49.0,29.97,West,270,0.0,7.0,52,0.00,,,0.00,weatherlink.com 1.10,2013-09-22 20:00:00,
2013-09-22 16:15:00,68.9,49.0,29.96,NW,312,2.0,6.0,49,0.00,,,0.00,weatherlink.com 1.10,2013-09-22 20:15:00,
2013-09-22 16:30:00,68.6,48.0,29.96,NNW,329,5.0,7.0,48,0.00,,,0.00,weatherlink.com 1.10,2013-09-22 20:30:00,
2013-09-22 16:45:00,68.8,48.0,29.96,NNE,18,3.0,3.0,48,0.00,,,0.00,weatherlink.com 1.10,2013-09-22 20:45:00,
2013-09-22 17:00:00,68.9,48.0,29.96,NW,322,6.0,10.0,47,0.00,,,0.00,weatherlink.com 1.10,2013-09-22 21:00:00,
2013-09-22 17:15:00,69.3,48.0,29.96,West,267,2.0,5.0,46,0.00,,,0.00,weatherlink.com 1.10,2013-09-22 21:15:00,
2013-09-22 17:30:00,68.6,47.0,29.96,WNW,293,2.0,6.0,46,0.00,,,0.00,weatherlink.com 1.10,2013-09-22 21:30:00,
2013-09-22 17:45:00,67.9,47.0,29.96,NNW,329,3.0,6.0,47,0.00,,,0.00,weatherlink.com 1.10,2013-09-22 21:45:00,
2013-09-22 18:00:00,67.2,46.0,29.97,NE,43,1.0,6.0,47,0.00,,,0.00,weatherlink.com 1.10,2013-09-22 22:00:00,
2013-09-22 18:15:00,66.6,46.0,29.97,NW,315,2.0,6.0,48,0.00,,,0.00,weatherlink.com 1.10,2013-09-22 22:15:00,
2013-09-22 18:30:00,66.0,47.0,29.97,NNW,333,2.0,4.0,50,0.00,,,0.00,weatherlink.com 1.10,2013-09-22 22:30:00,
2013-09-22 18:45:00,65.9,47.0,29.98,NW,313,1.0,6.0,51,0.00,,,0.00,weatherlink.com 1.10,2013-09-22 22:45:00,
2013-09-22 19:00:00,65.3,48.0,29.97,NW,308,0.0,1.0,54,0.00,,,0.00,weatherlink.com 1.10,2013-09-22 23:00:00,
2013-09-22 19:15:00,63.7,50.0,29.98,NW,315,0.0,0.0,61,0.00,,,0.00,weatherlink.com 1.10,2013-09-22 23:15:00,
2013-09-22 19:30:00,61.0,49.0,29.98,NW,314,0.0,2.0,65,0.00,,,0.00,weatherlink.com 1.10,2013-09-22 23:30:00,
2013-09-22 19:45:00,59.1,49.0,29.98,WNW,299,1.0,2.0,70,0.00,,,0.00,weatherlink.com 1.10,2013-09-22 23:45:00,
2013-09-22 20:01:00,58.7,49.0,29.99,NW,318,0.0,1.0,70,0.00,,,0.00,weatherlink.com 1.10,2013-09-23 00:01:00,
2013-09-22 20:15:00,58.6,49.0,29.99,NW,311,1.0,2.0,70,0.00,,,0.00,weatherlink.com 1.10,2013-09-23 00:15:00,
2013-09-22 20:31:00,58.7,49.0,30.00,NW,312,1.0,2.0,70,0.00,,,0.00,weatherlink.com 1.10,2013-09-23 00:31:00,
2013-09-22 20:46:00,58.7,49.0,30.00,North,349,0.0,2.0,70,0.00,,,0.00,weatherlink.com 1.10,2013-09-23 00:46:00,
2013-09-22 21:01:00,58.2,49.0,30.00,NW,322,0.0,2.0,71,0.00,,,0.00,weatherlink.com 1.10,2013-09-23 01:01:00,
2013-09-22 21:16:00,58.0,49.0,30.00,NW,311,0.0,2.0,71,0.00,,,0.00,weatherlink.com 1.10,2013-09-23 01:16:00,
2013-09-22 21:31:00,57.8,48.0,30.01,NW,318,0.0,3.0,71,0.00,,,0.00,weatherlink.com 1.10,2013-09-23 01:31:00,
2013-09-22 21:46:00,57.2,49.0,30.01,NW,318,0.0,1.0,73,0.00,,,0.00,weatherlink.com 1.10,2013-09-23 01:46:00,
2013-09-22 22:01:00,56.3,49.0,30.01,NW,318,0.0,0.0,76,0.00,,,0.00,weatherlink.com 1.10,2013-09-23 02:01:00,
2013-09-22 22:16:00,54.7,49.0,30.01,NW,318,0.0,0.0,82,0.00,,,0.00,weatherlink.com 1.10,2013-09-23 02:16:00,
2013-09-22 22:31:00,53.5,49.0,30.02,NW,318,0.0,0.0,85,0.00,,,0.00,weatherlink.com 1.10,2013-09-23 02:31:00,
2013-09-22 22:46:00,52.9,49.0,30.02,NW,318,0.0,0.0,86,0.00,,,0.00,weatherlink.com 1.10,2013-09-23 02:46:00,
2013-09-22 23:01:00,52.8,49.0,30.02,NW,318,0.0,0.0,87,0.00,,,0.00,weatherlink.com 1.10,2013-09-23 03:01:00,
2013-09-22 23:16:00,52.5,49.0,30.02,NW,316,0.0,0.0,86,0.00,,,0.00,weatherlink.com 1.10,2013-09-23 03:16:00,
2013-09-22 23:31:00,52.6,49.0,30.03,NW,318,0.0,1.0,86,0.00,,,0.00,weatherlink.com 1.10,2013-09-23 03:31:00,
2013-09-22 23:46:00,52.5,49.0,30.03,NW,318,0.0,0.0,86,0.00,,,0.00,weatherlink.com 1.10,2013-09-23 03:46:00,